[TLELIST] Archives

 

Current TLEs

June 4th 2006 PDT

HST 1 20580U 90037B 06153.32527391 +.00000374 +00000-0 +16329-4 0 06234 2 20580 028.4663 146.7687 0003151 031.7405 328.3366 15.00044201682863 ISS (ZARYA) 1 25544U 98067A 06153.79389594 .00015816 00000-0 10401-3 0 417 2 25544 051.6335 261.5934 0008807 282.8125 215.7065 15.75854998430897 CXO 1 25867U 99040B 06154.54166667 .00000000 00000-0 00000+0 0 9334 2 25867 059.6542 096.9018 5788860 291.5045 359.9254 00.37796555 1210 ____________________________________________________________________ These 2-Line ...Continue Reading

Current TLEs

June 3rd 2006 PDT

HST 1 20580U 90037B 06153.12567213 .00000365 00000-0 15617-4 0 6227 2 20580 028.4662 148.0682 0003236 028.0985 331.9790 15.00044088682839 ISS (ZARYA) 1 25544U 98067A 06153.66842227 .00015715 00000-0 10339-3 0 429 2 25544 051.6339 262.2391 0008771 281.6963 224.5204 15.75850449430871 CXO 1 25867U 99040B 06154.54166667 .00000000 00000-0 00000+0 0 9334 2 25867 059.6542 096.9018 5788860 291.5045 359.9254 00.37796555 1210 ____________________________________________________________________ These 2-Line ...Continue Reading

Current TLEs

June 2nd 2006 PDT

HST 1 20580U 90037B 06153.12567213 .00000365 00000-0 15617-4 0 6227 2 20580 028.4662 148.0682 0003236 028.0985 331.9790 15.00044088682839 ISS (ZARYA) 1 25544U 98067A 06153.33231459 .00015464 00000-0 10186-3 0 399 2 25544 051.6343 263.9701 0008814 280.1589 118.0125 15.75838349430824 CXO 1 25867U 99040B 06154.54166667 .00000000 00000-0 00000+0 0 9334 2 25867 059.6542 096.9018 5788860 291.5045 359.9254 00.37796555 1210 ____________________________________________________________________ These 2-Line ...Continue Reading

Current TLEs

June 1st 2006 PDT

HST 1 20580U 90037B 06151.39578716 +.00000378 +00000-0 +16616-4 0 06228 2 20580 028.4662 159.3454 0003181 008.0585 352.0040 15.00043380682571 ISS (ZARYA) 1 25544U 98067A 06152.44555657 .00015170 00000-0 10014-3 0 348 2 25544 051.6348 268.5359 0008679 276.7048 127.5142 15.75808502430685 CXO 1 25867U 99040B 06151.87500000 .00000000 00000-0 00000+0 0 9329 2 25867 059.6512 096.9387 5785175 291.5877 356.8569 00.37787081 1214 ____________________________________________________________________ These 2-Line ...Continue Reading

Current TLEs

May 31st 2006 PDT

HST 1 20580U 90037B 06150.46431106 .00000426 00000-0 20426-4 0 6202 2 20580 028.4663 165.4165 0003246 358.1343 001.9248 15.00043162682435 ISS (ZARYA) 1 25544U 98067A 06151.49380152 .00014898 00000-0 98553-4 0 282 2 25544 051.6348 273.4372 0008790 272.2312 129.1676 15.75777473430530 CXO 1 25867U 99040B 06151.87500000 .00000000 00000-0 00000+0 0 9329 2 25867 059.6512 096.9387 5785175 291.5877 356.8569 00.37787081 1214 ____________________________________________________________________ These 2-Line ...Continue Reading

Current TLEs

May 30th 2006 PDT

HST 1 20580U 90037B 06149.39976578 .00000526 00000-0 28212-4 0 6199 2 20580 028.4668 172.3580 0003249 344.6140 015.4354 15.00043048682279 ISS (ZARYA) 1 25544U 98067A 06149.80131655 .00014407 00000-0 95670-4 0 188 2 25544 051.6342 282.1516 0008840 264.2646 249.6782 15.75723348430266 CXO 1 25867U 99040B 06151.87500000 .00000000 00000-0 00000+0 0 9329 2 25867 059.6512 096.9387 5785175 291.5877 356.8569 00.37787081 1214 ____________________________________________________________________ These 2-Line ...Continue Reading

Current TLEs

May 29th 2006 PDT

HST 1 20580U 90037B 06148.40175582 +.00000412 +00000-0 +19290-4 0 06309 2 20580 028.4673 178.8690 0003409 333.3035 026.7376 15.00041837682121 ISS (ZARYA) 1 25544U 98067A 06148.91178571 +.00014518 +00000-0 +96478-4 0 00132 2 25544 051.6346 286.7326 0008913 260.3984 244.2229 15.75697186430124 CXO 1 25867U 99040B 06149.25000000 .00000000 00000-0 00000+0 0 9312 2 25867 059.6416 096.9356 5785302 291.7218 359.4246 00.37785552 1218 ____________________________________________________________________ These 2-Line ...Continue Reading

Current TLEs

May 6th 2006 PDT

HST 1 20580U 90037B 06124.91515167 .00000673 00000-0 39829-4 0 6024 2 20580 028.4685 331.9705 0003729 089.3370 270.7645 15.00024788678590 ISS (ZARYA) 1 25544U 98067A 06126.49163194 .00019663 00000-0 13287-3 0 8798 2 25544 051.6374 042.1073 0009664 165.1701 181.1853 15.75024793426586 CXO 1 25867U 99040B 06125.45833333 .00000000 00000-0 00000+0 0 9221 2 25867 059.3732 097.4221 5790917 292.1225 000.3227 00.37793273 1214 ____________________________________________________________________ These 2-Line ...Continue Reading

Current TLEs

May 5th 2006 PDT

HST 1 20580U 90037B 06124.91515167 .00000673 00000-0 39829-4 0 6024 2 20580 028.4685 331.9705 0003729 089.3370 270.7645 15.00024788678590 ISS (ZARYA) 1 25544U 98067A 06125.44259259 .00059851 00000-0 39391-3 0 8720 2 25544 051.6393 047.5037 0009789 163.0053 351.2949 15.75018669426425 CXO 1 25867U 99040B 06125.45833333 .00000000 00000-0 00000+0 0 9221 2 25867 059.3732 097.4221 5790917 292.1225 000.3227 00.37793273 1214 ____________________________________________________________________ These 2-Line ...Continue Reading

Current TLEs

May 4th 2006 PDT

HST 1 20580U 90037B 06123.85059430 .00000701 00000-0 41979-4 0 6012 2 20580 028.4684 338.9101 0003658 077.8306 282.2689 15.00023792678431 ISS (ZARYA) 1 25544U 98067A 06124.41903053 .00017351 00000-0 11341-3 0 8605 2 25544 051.6388 052.7632 0008628 182.5665 284.1093 15.75911743426265 CXO 1 25867U 99040B 06122.79166667 .00000000 00000-0 00000+0 0 9213 2 25867 059.3646 097.4451 5789180 292.2185 357.2457 00.37787992 1219 ____________________________________________________________________ These 2-Line ...Continue Reading
  • This mailing list is a public mailing list - anyone may join or leave, at any time.
  • This mailing list is announce-only.

International Space Station (ISS) / Hubble Space Telescope (HST) / Chandra X-Ray Observatory Orbital Data via EMAIL

Privacy Policy:

Private list